AS855 Weather Reports


Display with metric or nautical units.
time (UTC)temp
F
wind
direction
speed
MPH
gust
MPH
rain 1hr
in
rain 24hr
in
rain mn
in
humidity
%
barometer
mb
20260505021517 58 225 9.0 15.0 0.00 0.03 0.03 55 1008.6
20260505020520 58 180 2.0 4.0 0.00 0.03 0.03 51 1008.7
20260505015517 58 203 7.0 10.0 0.00 0.03 0.03 53 1008.3
20260505014517 58 203 7.0 10.0 0.00 0.03 0.03 54 1007.7
20260505013518 58 203 5.0 9.0 0.00 0.03 0.03 55 1007.7
20260505012522 59 113 1.0 3.0 0.00 0.03 0.03 56 1007.9
20260505011517 58 113 2.0 6.0 0.00 0.03 0.03 58 1007.8
20260505010521 58 90 2.0 4.0 0.00 0.03 0.03 56 1007.9
20260505005517 59 90 3.0 6.0 0.00 0.03 0.03 54 1007.9
20260505004517 59 45 2.0 5.0 0.00 0.03 0.03 53 1008.2
20260505003638 59 68 4.0 11.0 0.00 0.03 0.03 52 1008.1
20260505002517 60 90 2.0 6.0 0.00 0.03 0.03 54 1008.0
20260505001518 60 68 2.0 5.0 0.00 0.03 0.03 53 1007.9
20260505000537 61 23 2.0 6.0 0.00 0.03 0.03 51 1008.1
20260504235517 61 0 5.0 11.0 0.00 0.03 0.03 49 1007.9
20260504234517 61 0 6.0 12.0 0.01 0.03 0.03 48 1007.8
20260504233517 61 315 2.0 6.0 0.03 0.03 0.03 57 1008.0
20260504232517 61 90 2.0 4.0 0.03 0.03 0.03 55 1007.6
20260504231517 61 203 2.0 6.0 0.03 0.03 0.03 49 1007.8
20260504230517 60 113 10.0 16.0 0.03 0.03 0.03 51 1007.3
20260504225517 58 135 8.0 12.0 0.03 0.03 0.03 60 1007.0
20260504224517 60 135 12.0 19.0 0.02 0.02 0.02 50 1007.3
20260504223517 64 135 6.0 10.0 0.00 0.00 0.00 41 1007.9
20260504222517 64 113 13.0 23.0 0.00 0.00 0.00 37 1007.6
20260504221520 65 90 12.0 23.0 0.00 0.00 0.00 36 1007.9
20260504220517 67 68 11.0 19.0 0.00 0.00 0.00 35 1008.4
20260504215517 68 270 2.0 7.0 0.00 0.00 0.00 30 1008.8
20260504214517 68 270 3.0 8.0 0.00 0.00 0.00 29 1008.8
20260504213518 67 203 8.0 13.0 0.00 0.00 0.00 31 1009.1
20260504212517 67 68 2.0 7.0 0.00 0.00 0.00 31 1009.5
20260504211521 66 68 4.0 8.0 0.00 0.00 0.00 33 1009.4
20260504210517 67 45 4.0 9.0 0.00 0.00 0.00 32 1009.7
20260504205617 68 23 5.0 10.0 0.00 0.00 0.00 32 1009.7
20260504204517 68 68 2.0 5.0 0.00 0.00 0.00 30 1010.2
20260504203517 68 338 5.0 13.0 0.00 0.00 0.00 33 1010.3
20260504202517 67 45 4.0 10.0 0.00 0.00 0.00 35 1010.0
20260504201517 67 293 2.0 4.0 0.00 0.00 0.00 33 1010.0
20260504200516 65 113 3.0 9.0 0.00 0.00 0.00 31 1009.7
20260504195516 64 68 4.0 11.0 0.00 0.00 0.00 33 1009.7
20260504194519 64 203 6.0 11.0 0.00 0.00 0.00 35 1009.9
20260504193517 63 203 6.0 10.0 0.00 0.00 0.00 37 1010.1
20260504192517 63 203 9.0 12.0 0.00 0.00 0.00 38 1010.1
20260504191519 63 225 5.0 11.0 0.00 0.00 0.00 46 1010.4
20260504190516 63 180 5.0 8.0 0.00 0.00 0.00 38 1010.3
20260504185517 62 203 8.0 13.0 0.00 0.00 0.00 35 1010.0
20260504184519 60 203 9.0 12.0 0.00 0.00 0.00 47 1010.2
20260504183519 59 203 8.0 15.0 0.00 0.00 0.00 52 1010.2
20260504182516 60 225 5.0 11.0 0.00 0.00 0.00 53 1010.6
20260504181516 60 203 6.0 10.0 0.00 0.00 0.00 46 1010.6
20260504180518 60 225 5.0 10.0 0.00 0.00 0.00 45 1010.7
20260504175517 60 180 3.0 8.0 0.00 0.00 0.00 44 1010.6
20260504174517 60 180 4.0 7.0 0.00 0.00 0.00 44 1010.4
20260504173516 60 180 6.0 11.0 0.00 0.00 0.00 42 1010.4
20260504172536 61 180 6.0 10.0 0.00 0.00 0.00 43 1010.7
20260504171516 61 203 4.0 10.0 0.00 0.00 0.00 42 1010.9
20260504170517 62 45 2.0 4.0 0.00 0.00 0.00 40 1010.9
20260504150520 58 23 3.0 5.0 0.00 0.00 0.00 46 1011.6
20260504140516 59 270 1.0 4.0 0.00 0.00 0.00 46 1012.5
20260504130516 54 135 3.0 6.0 0.00 0.00 0.00 47 1012.3
20260504110518 55 68 3.0 5.0 0.00 0.00 0.00 45 1013.0
20260504100515 55 158 3.0 6.0 0.00 0.00 0.00 41 1012.7
20260504081518 58 225 8.0 14.0 0.00 0.00 0.00 37 1012.2
20260504080540 58 113 1.0 4.0 0.00 0.00 0.00 33 1012.1
20260504050538 59 113 5.0 7.0 0.00 0.00 0.00 29 1012.0
20260504045521 59 135 5.0 7.0 0.00 0.00 0.00 29 1012.2
20260504044517 59 135 3.0 5.0 0.00 0.00 0.00 29 1012.1
20260504043517 60 135 6.0 8.0 0.00 0.00 0.00 28 1012.1
20260504042517 60 135 6.0 8.0 0.00 0.00 0.00 29 1012.2
20260504041517 60 135 7.0 10.0 0.00 0.00 0.00 28 1011.8
20260504040517 59 135 5.0 8.0 0.00 0.00 0.00 30 1011.9
20260504035518 60 135 5.0 9.0 0.00 0.00 0.00 30 1011.9
20260504034521 61 135 6.0 10.0 0.00 0.00 0.00 29 1012.2
20260504033537 62 113 5.0 7.0 0.00 0.00 0.00 26 1012.2
20260504032538 63 158 3.0 5.0 0.00 0.00 0.00 24 1012.5
20260504031517 63 180 4.0 8.0 0.00 0.00 0.00 25 1012.0
20260504030518 63 158 3.0 8.0 0.00 0.00 0.00 26 1012.0
20260504025517 64 158 4.0 7.0 0.00 0.00 0.00 24 1012.1
20260504024558 64 180 5.0 9.0 0.00 0.00 0.00 24 1011.5
20260504023519 65 158 5.0 8.0 0.00 0.00 0.00 24 1011.4
20260504022518 65 158 3.0 7.0 0.00 0.00 0.00 24 1011.5